This is the latest recevied weather packets stored in our database for station/object F5PHW-13. If no packets are shown the sender has not sent any weather packets the latest 10 day(s).
| Time | Temp. | Humidity | Pressure | Rain* | Wind** | Luminosity | Snow |
|---|---|---|---|---|---|---|---|
| 1777900276 | 16.67° C | 70% | 1010.7 hPa | 0 mm | - | - | - |
| 1777899076 | 16.67° C | 69% | 1010.7 hPa | 0 mm | - | - | - |
| 1777897876 | 16.67° C | 67% | 1010.8 hPa | 0 mm | - | - | - |
| 1777896676 | 17.22° C | 66% | 1010.8 hPa | 0 mm | - | - | - |
| 1777895477 | 17.22° C | 68% | 1010.8 hPa | 0 mm | - | - | - |
| 1777894276 | 17.22° C | 66% | 1011 hPa | 0 mm | - | - | - |
| 1777893076 | 17.22° C | 67% | 1011.1 hPa | 0 mm | - | - | - |
| 1777891876 | 17.22° C | 67% | 1011.2 hPa | 0 mm | - | - | - |
| 1777890676 | 17.22° C | 68% | 1011.2 hPa | 0 mm | - | - | - |
| 1777889476 | 17.22° C | 71% | 1011.2 hPa | 0 mm | - | - | - |
| 1777888276 | 16.11° C | 73% | 1011.3 hPa | 0 mm | - | - | - |
| 1777887076 | 16.11° C | 76% | 1011.3 hPa | 0 mm | - | - | - |
| 1777885876 | 15° C | 82% | 1011.3 hPa | 0 mm | - | - | - |
| 1777884676 | 14.44° C | 87% | 1011.3 hPa | 0 mm | - | - | - |
| 1777883476 | 13.89° C | 89% | 1011.3 hPa | 0 mm | - | - | - |
| 1777882276 | 12.78° C | 90% | 1011.2 hPa | 0 mm | - | - | - |
| 1777881076 | 12.22° C | 90% | 1011.2 hPa | 0 mm | - | - | - |
| 1777879882 | 11.11° C | 90% | 1011.1 hPa | 0 mm | - | - | - |
| 1777878681 | 10° C | 90% | 1011 hPa | 0 mm | - | - | - |
| 1777877483 | 8.89° C | 89% | 1010.9 hPa | 0 mm | - | - | - |
| 1777876278 | 8.33° C | 89% | 1010.7 hPa | 0 mm | - | - | - |
| 1777875078 | 8.33° C | 89% | 1010.5 hPa | 0 mm | - | - | - |
| 1777873877 | 7.78° C | 89% | 1010.4 hPa | 0 mm | - | - | - |
| 1777872677 | 7.78° C | 88% | 1010.2 hPa | 0 mm | - | - | - |
| 1777871477 | 7.22° C | 88% | 1010 hPa | 0 mm | - | - | - |
* Rain latest hour (hover to see other rain measurements)
** Current wind speed in m/s (hover to see current wind gust speed)